Weather History for KFTK - September, 2013

Change the Weather History Date:

Monday, September 2, 2013

  Actual Average Record
Temperature  
Mean Temperature 76 °F -  
Max Temperature 84 °F 82 °F 100 °F (2011)
Min Temperature 68 °F 61 °F 59 °F (1998)
Cooling Degree Days 11    
Growing Degree Days 26 (Base 50)    
Moisture  
Dew Point 72 °F    
Average Humidity 91    
Maximum Humidity 100    
Minimum Humidity 68    
Precipitation  
Precipitation 0.00 in - - ()
Sea Level Pressure  
Sea Level Pressure 29.87 in    
Wind  
Wind Speed 4 mph (SW)    
Max Wind Speed 8 mph    
Max Gust Speed -    
Visibility 6 miles    
Events Fog , Thunderstorm    
Averages and records for this station are not official NWS values.
T = Trace of Precipitation, MM = Missing Value Source: NWS Daily Summary

Daily Weather History Graph

Daily Weather History Graph

Search for Another Location

Airport or City:

Trip Planner

Search our weather history database for the weather conditions in past years. The results will help you decide how hot, cold, wet, or windy it might be!

Date:

Astronomy

Sep. 02, 2013 Rise Set
Actual Time 7:14 AM EDT 8:11 PM EDT
Civil Twilight 6:48 AM EDT 8:38 PM EDT
Nautical Twilight 6:16 AM EDT 9:09 PM EDT
Astronomical Twilight 5:43 AM EDT 9:42 PM EDT
Moon 4:33 AM EDT (9/2) 6:23 PM EDT (9/2)
Length of Visible Light 13h 50m
Length of Day
12h 56m
Waning Crescent, 8% of the Moon is Illuminated
Sep 2
Waning Crescent
Sep 5
New
Sep 12
First Quarter
Sep 19
Full
Sep 26
Last Quarter

Hourly Weather History & Observations

Time (EDT) Temp. Heat Index Dew Point Humidity Pressure Visibility Wind Dir Wind Speed Gust Speed Precip Events Conditions
12:58 AM 73.9 °F - 72.5 °F 95% 29.85 in 10.0 mi SW 8.1 mph - N/A   Partly Cloudy
1:58 AM 72.9 °F - 72.0 °F 97% 29.85 in 10.0 mi SSW 3.5 mph - N/A   Scattered Clouds
2:58 AM 71.8 °F - 71.2 °F 98% 29.84 in 10.0 mi SW 2.3 mph - N/A   Clear
3:58 AM 70.9 °F - 70.9 °F 100% 29.83 in 9.0 mi SSW 2.3 mph - N/A   Mostly Cloudy
4:58 AM 70.5 °F - 70.5 °F 100% 29.83 in 4.0 mi SSW 2.3 mph - N/A   Clear
5:33 AM 69.8 °F - 69.8 °F 100% 29.84 in 2.5 mi SSW 2.3 mph - N/A   Clear
5:38 AM 69.8 °F - 69.8 °F 100% 29.84 in 1.5 mi SSW 2.3 mph - N/A   Clear
5:43 AM 69.8 °F - 69.8 °F 100% 29.84 in 1.0 mi Calm Calm - N/A   Clear
5:48 AM 69.8 °F - 69.8 °F 100% 29.84 in 0.8 mi SW 1.2 mph - N/A   Clear
5:53 AM 69.8 °F - 69.8 °F 100% 29.84 in 0.5 mi Calm Calm - N/A Fog Fog
5:58 AM 69.3 °F - 69.3 °F 100% 29.83 in 0.5 mi South 2.3 mph - N/A Fog Fog
6:08 AM 69.8 °F - 69.8 °F 100% 29.84 in 1.0 mi SSW 2.3 mph - N/A   Clear
6:13 AM 69.8 °F - 69.8 °F 100% 29.84 in 0.8 mi Calm Calm - N/A   Clear
6:18 AM 69.8 °F - 69.8 °F 100% 29.84 in 0.5 mi Calm Calm - N/A Fog Fog
6:53 AM 68.0 °F - 68.0 °F 100% 29.85 in 1.0 mi SSW 3.5 mph - N/A   Clear
6:58 AM 68.9 °F - 68.9 °F 100% 29.84 in 1.2 mi SSW 2.3 mph - N/A   Clear
7:03 AM 68.0 °F - 68.0 °F 100% 29.86 in 0.8 mi SSW 3.5 mph - N/A   Clear
7:08 AM 68.0 °F - 68.0 °F 100% 29.86 in 0.5 mi SSW 3.5 mph - N/A Fog Fog
7:13 AM 68.0 °F - 68.0 °F 100% 29.86 in 0.2 mi SW 2.3 mph - N/A Fog Fog
7:23 AM 69.8 °F - 69.8 °F 100% 29.86 in 0.8 mi WSW 5.8 mph - N/A   Mostly Cloudy
7:28 AM 69.8 °F - 69.8 °F 100% 29.86 in 3.0 mi WSW 6.9 mph - N/A   Mostly Cloudy
7:38 AM 71.6 °F - 71.6 °F 100% 29.87 in 3.0 mi WSW 4.6 mph - N/A   Overcast
7:53 AM 71.6 °F - 71.6 °F 100% 29.87 in 2.0 mi WSW 6.9 mph - N/A   Overcast
7:58 AM 71.6 °F - 71.6 °F 100% 29.87 in 1.8 mi SW 5.8 mph - N/A   Overcast
8:03 AM 71.6 °F - 71.6 °F 100% 29.88 in 1.2 mi WSW 5.8 mph - N/A   Overcast
8:13 AM 71.6 °F - 71.6 °F 100% 29.88 in 1.0 mi WSW 4.6 mph - N/A   Overcast
8:18 AM 71.6 °F - 71.6 °F 100% 29.88 in 0.8 mi SW 4.6 mph - N/A   Overcast
8:38 AM 73.4 °F - 73.4 °F 100% 29.89 in 1.0 mi WSW 4.6 mph - N/A   Overcast
8:43 AM 73.4 °F - 73.4 °F 100% 29.89 in 1.2 mi WSW 4.6 mph - N/A   Overcast
8:48 AM 73.4 °F - 73.4 °F 100% 29.89 in 1.8 mi West 4.6 mph - N/A   Overcast
8:53 AM 73.4 °F - 73.4 °F 100% 29.89 in 2.5 mi West 4.6 mph - N/A   Overcast
8:58 AM 72.9 °F - 72.9 °F 100% 29.88 in 3.0 mi West 4.6 mph - N/A   Overcast
9:18 AM 73.4 °F - 73.4 °F 100% 29.89 in 5.0 mi WSW 5.8 mph - N/A   Overcast
9:28 AM 73.4 °F - 73.4 °F 100% 29.89 in 6.0 mi WSW 4.6 mph - N/A   Overcast
9:58 AM 74.3 °F - 74.3 °F 100% 29.89 in 7.0 mi WSW 3.5 mph - N/A   Overcast
10:08 AM 75.2 °F - 73.4 °F 94% 29.91 in 10.0 mi SW 4.6 mph - N/A   Overcast
10:43 AM 77.0 °F - 71.6 °F 83% 29.91 in 10.0 mi Variable 2.3 mph - N/A   Mostly Cloudy
10:58 AM 77.5 °F - 72.5 °F 84% 29.90 in 10.0 mi Variable 2.3 mph - N/A   Overcast
11:28 AM 78.8 °F - 71.6 °F 78% 29.91 in 10.0 mi WSW 3.5 mph - N/A   Scattered Clouds
11:33 AM 80.6 °F 85.4 °F 73.4 °F 79% 29.92 in 10.0 mi SW 4.6 mph - N/A   Mostly Cloudy
11:48 AM 80.6 °F 85.4 °F 73.4 °F 79% 29.91 in 10.0 mi South 5.8 mph - N/A   Scattered Clouds
11:53 AM 80.6 °F 85.4 °F 73.4 °F 79% 29.91 in 10.0 mi SSW 4.6 mph - N/A   Mostly Cloudy
11:58 AM 80.6 °F 85.4 °F 73.4 °F 79% 29.90 in 10.0 mi SW 5.8 mph - N/A   Mostly Cloudy
12:03 PM 80.6 °F 85.4 °F 73.4 °F 79% 29.91 in 10.0 mi SSW 5.8 mph - N/A   Mostly Cloudy
12:23 PM 80.6 °F 85.4 °F 73.4 °F 79% 29.91 in 10.0 mi SSW 8.1 mph - N/A   Mostly Cloudy
12:33 PM 80.6 °F 85.4 °F 73.4 °F 79% 29.91 in 10.0 mi SSW 6.9 mph - N/A   Mostly Cloudy
12:48 PM 82.4 °F 88.2 °F 73.4 °F 74% 29.91 in 10.0 mi Variable 3.5 mph - N/A   Scattered Clouds
12:58 PM 82.0 °F 87.4 °F 72.9 °F 74% 29.90 in 10.0 mi Variable 4.6 mph - N/A   Scattered Clouds
1:58 PM 83.7 °F 89.7 °F 73.0 °F 70% 29.88 in 10.0 mi South 8.1 mph - N/A   Partly Cloudy
2:58 PM 84.6 °F 91.7 °F 73.8 °F 70% 29.85 in 10.0 mi South 8.1 mph - N/A   Scattered Clouds
3:58 PM 81.7 °F 86.9 °F 73.0 °F 75% 29.86 in 10.0 mi Variable 3.5 mph - N/A Thunderstorm Clear
4:58 PM 83.5 °F 90.3 °F 73.9 °F 73% 29.84 in 10.0 mi North 4.6 mph - N/A   Scattered Clouds
5:58 PM 83.1 °F 88.6 °F 72.5 °F 70% 29.82 in 10.0 mi WSW 6.9 mph - N/A   Clear
6:58 PM 82.6 °F 87.1 °F 71.2 °F 68% 29.82 in 10.0 mi WSW 4.6 mph - N/A   Clear
7:58 PM 78.8 °F - 72.1 °F 80% 29.84 in 10.0 mi West 4.6 mph - N/A   Clear
8:49 PM 77.0 °F - 71.6 °F 83% 29.86 in 10.0 mi WNW 3.5 mph - N/A   Light Drizzle
8:58 PM 76.8 °F - 71.4 °F 83% 29.86 in 10.0 mi WNW 5.8 mph - 0.00 in   Light Drizzle
8:59 PM 77.0 °F - 71.6 °F 83% 29.87 in 10.0 mi WNW 5.8 mph - N/A   Mostly Cloudy
9:58 PM 73.8 °F - 69.8 °F 87% 29.86 in 10.0 mi NW 3.5 mph - 0.00 in   Clear
10:58 PM 71.4 °F - 69.4 °F 93% 29.87 in 10.0 mi NW 5.8 mph - N/A   Clear
11:58 PM 68.7 °F - 67.3 °F 95% 29.88 in 10.0 mi NW 4.6 mph - N/A   Clear